Sigfox identifier Datetime Temperature Humidity SNR
002EED3D 2019-04-23 14:44:39 16.3 31 22.2
002EED3D 2019-04-23 14:11:27 16.1 30 22.1
002EED3D 2019-04-23 13:38:16 16.1 30 22
002EED3D 2019-04-23 13:05:03 16 30 22
002EED3D 2019-04-23 12:31:50 15.9 30 22.1
002EED3D 2019-04-23 11:58:38 15.9 30 22.2
002EED3D 2019-04-23 11:25:24 15.9 30 22.1
002EED3D 2019-04-23 10:52:11 15.8 30 22
002EED3D 2019-04-23 10:18:58 15.7 30 21.8
002EED3D 2019-04-23 09:45:45 15.7 30 21.7
002EED3D 2019-04-23 09:12:32 15.7 30 21.6
002EED3D 2019-04-23 08:39:18 15.7 30 21.3
002EED3D 2019-04-23 08:06:06 15.7 30 21.3
002EED3D 2019-04-23 07:32:52 15.7 30 21.5
002EED3D 2019-04-23 06:59:41 15.7 30 21.5
002EED3D 2019-04-23 06:26:28 15.7 30 21.7
002EED3D 2019-04-23 05:53:15 15.7 30 21.7
002EED3D 2019-04-23 05:20:02 15.7 29 22
002EED3D 2019-04-23 04:46:50 15.7 29 22.2
002EED3D 2019-04-23 04:13:38 15.7 29 22.5
002EED3D 2019-04-23 03:40:26 15.7 29 22.5
002EED3D 2019-04-23 03:07:14 15.7 29 22.6
002EED3D 2019-04-23 02:34:03 15.7 29 22.7
002EED3D 2019-04-23 02:00:51 15.7 29 22.7
002EED3D 2019-04-23 01:27:39 15.7 29 22.8
002EED3D 2019-04-23 00:54:26 15.8 29 22.9
002EED3D 2019-04-23 00:21:15 15.9 29 22.9
002EED3D 2019-04-22 23:48:03 15.9 29 23
002EED3D 2019-04-22 23:14:49 15.9 29 23
002EED3D 2019-04-22 22:41:36 15.9 29 23
002EED3D 2019-04-22 22:08:22 15.9 29 23
002EED3D 2019-04-22 21:35:08 15.9 29 22.9
002EED3D 2019-04-22 21:01:56 15.9 29 22.9
002EED3D 2019-04-22 20:28:43 16 29 22.9
002EED3D 2019-04-22 19:55:31 16 29 22.8
002EED3D 2019-04-22 19:22:17 16.1 29 22.8
002EED3D 2019-04-22 18:49:03 16.1 29 22.7
002EED3D 2019-04-22 18:15:50 16.1 29 22.6
002EED3D 2019-04-22 17:42:37 16.1 29 22.6
002EED3D 2019-04-22 17:09:22 16.1 29 22.5
002EED3D 2019-04-22 16:36:09 16 29 22.4
002EED3D 2019-04-22 16:02:57 15.9 29 22.4
002EED3D 2019-04-22 15:29:44 15.9 29 22.2
002EED3D 2019-04-22 14:56:31 15.9 29 22
002EED3D 2019-04-22 14:23:18 15.9 29 21.7
002EED3D 2019-04-22 13:50:05 15.9 29 21.7
002EED3D 2019-04-22 13:16:52 15.9 29 21.6
002EED3D 2019-04-22 12:43:38 15.9 29 21.5
002EED3D 2019-04-22 12:10:25 15.9 29 21.5
002EED3D 2019-04-22 11:37:13 15.9 29 21.4
002EED3D 2019-04-22 11:03:59 15.8 29 21.3
002EED3D 2019-04-22 10:30:46 15.8 29 21.3
002EED3D 2019-04-22 09:57:34 15.7 29 21.3
002EED3D 2019-04-22 09:24:21 15.7 29 21.3
002EED3D 2019-04-22 08:51:08 15.7 29 21.3
002EED3D 2019-04-22 08:17:54 15.7 29 21.2
002EED3D 2019-04-22 07:44:40 15.7 29 22.2
002EED3D 2019-04-22 07:11:26 15.7 29 22.2
002EED3D 2019-04-22 06:38:13 15.7 29 22.1
002EED3D 2019-04-22 06:05:00 15.7 29 22.1
002EED3D 2019-04-22 05:31:47 15.7 29 22.2
002EED3D 2019-04-22 04:58:35 15.7 28 22.2
002EED3D 2019-04-22 04:25:22 15.7 29 22.3
002EED3D 2019-04-22 03:52:09 15.7 28 22.3
002EED3D 2019-04-22 03:18:55 15.7 28 22.3
002EED3D 2019-04-22 02:45:42 15.7 28 22.3
002EED3D 2019-04-22 02:12:29 15.7 28 22.4
002EED3D 2019-04-22 01:39:16 15.7 28 22.5
002EED3D 2019-04-22 01:06:03 15.6 28 22.6
002EED3D 2019-04-22 00:32:50 15.7 28 22.7
002EED3D 2019-04-21 23:59:37 15.6 28 22.7
002EED3D 2019-04-21 23:26:24 15.6 28 22.8
002EED3D 2019-04-21 22:53:10 15.6 28 22.8
002EED3D 2019-04-21 22:19:58 15.7 28 22.8
002EED3D 2019-04-21 21:46:45 15.7 28 22.8
002EED3D 2019-04-21 21:13:31 15.7 28 22.7
002EED3D 2019-04-21 20:40:18 15.6 28 22.7
002EED3D 2019-04-21 20:07:05 15.6 28 22.7
002EED3D 2019-04-21 19:33:52 15.6 28 22.7
002EED3D 2019-04-21 19:00:39 15.5 28 22.7
002EED3D 2019-04-21 18:27:26 15.6 28 22.7
002EED3D 2019-04-21 17:54:14 15.5 28 21.9
002EED3D 2019-04-21 17:21:01 15.5 28 21.9
002EED3D 2019-04-21 16:47:51 15.5 28 21.9
002EED3D 2019-04-21 16:14:39 15.5 28 22
002EED3D 2019-04-21 15:41:28 15.5 28 22
002EED3D 2019-04-21 15:08:16 15.5 28 22
002EED3D 2019-04-21 14:35:04 15.5 28 22
002EED3D 2019-04-21 14:01:51 15.5 28 22
002EED3D 2019-04-21 13:28:40 15.5 28 22.1
002EED3D 2019-04-21 12:55:29 15.5 28 22
002EED3D 2019-04-21 12:22:18 15.5 28 21.9
002EED3D 2019-04-21 11:49:06 15.5 28 21.9
002EED3D 2019-04-21 11:15:54 15.6 28 21.9
002EED3D 2019-04-21 10:42:42 15.7 28 21.8
002EED3D 2019-04-21 10:09:29 15.7 27 21.8
002EED3D 2019-04-21 09:36:15 15.7 27 21.7
002EED3D 2019-04-21 09:03:02 15.7 28 21.7
002EED3D 2019-04-21 08:29:49 15.8 28 21.7
002EED3D 2019-04-21 07:56:37 15.7 28 21.8
002EED3D 2019-04-21 07:23:25 15.8 28 21.9
002EED3D 2019-04-21 06:50:13 15.7 28 21.9
002EED3D 2019-04-21 06:17:00 15.7 28 21.9
002EED3D 2019-04-21 05:43:47 15.7 27 21.8
002EED3D 2019-04-21 05:10:34 15.7 27 22
002EED3D 2019-04-21 04:37:20 15.7 27 21.9
002EED3D 2019-04-21 04:04:07 15.7 27 22
002EED3D 2019-04-21 03:30:53 15.7 27 22
002EED3D 2019-04-21 02:57:41 15.7 27 22.1
002EED3D 2019-04-21 02:24:27 15.7 27 22.2
002EED3D 2019-04-21 01:51:14 15.7 27 22.1
002EED3D 2019-04-21 01:18:02 15.7 27 22.2
002EED3D 2019-04-21 00:44:51 15.7 27 22.2
002EED3D 2019-04-21 00:11:38 15.7 27 22.3
002EED3D 2019-04-20 23:38:26 15.6 27 22.3
002EED3D 2019-04-20 23:05:14 15.7 27 22.3
002EED3D 2019-04-20 22:32:01 15.7 27 22.3
002EED3D 2019-04-20 21:58:49 15.7 27 22.2
002EED3D 2019-04-20 21:25:37 15.7 27 22.2
002EED3D 2019-04-20 20:52:25 15.7 27 22.2
002EED3D 2019-04-20 20:19:13 15.7 27 22.1
002EED3D 2019-04-20 19:46:01 15.7 27 22.1
002EED3D 2019-04-20 19:12:50 15.7 27 22.1
002EED3D 2019-04-20 18:39:38 15.7 27 22.1
002EED3D 2019-04-20 18:06:26 15.7 27 22.1
002EED3D 2019-04-20 17:33:15 15.7 27 22
002EED3D 2019-04-20 17:00:04 15.7 27 21.9
002EED3D 2019-04-20 16:26:54 15.7 27 21.9
002EED3D 2019-04-20 15:53:41 15.7 27 21.9
002EED3D 2019-04-20 15:20:29 15.7 27 21.8
002EED3D 2019-04-20 14:47:17 15.6 27 21.8
002EED3D 2019-04-20 14:14:06 15.7 27 21.7
002EED3D 2019-04-20 13:40:53 15.7 26 21.7
002EED3D 2019-04-20 13:07:40 15.7 26 21.5
002EED3D 2019-04-20 12:34:27 15.7 26 21.4
002EED3D 2019-04-20 12:01:14 15.7 26 21.5
002EED3D 2019-04-20 11:28:01 15.7 26 21.5
002EED3D 2019-04-20 10:54:48 15.7 26 21.6
002EED3D 2019-04-20 10:21:35 15.7 26 21.6
002EED3D 2019-04-20 09:48:22 15.7 26 21.6
002EED3D 2019-04-20 09:15:10 15.7 26 21.6
002EED3D 2019-04-20 08:41:57 15.9 26 21.9
002EED3D 2019-04-20 08:08:45 15.9 26 21.9
002EED3D 2019-04-20 07:35:31 15.9 26 22
002EED3D 2019-04-20 07:02:18 15.9 26 22
002EED3D 2019-04-20 06:29:04 15.9 26 22.1
002EED3D 2019-04-20 05:55:52 15.9 26 22.1
002EED3D 2019-04-20 05:22:38 15.9 26 22.2
002EED3D 2019-04-20 04:49:24 15.9 26 22.2
002EED3D 2019-04-20 04:16:10 15.9 26 22.2
002EED3D 2019-04-20 03:42:58 15.9 26 22.3
002EED3D 2019-04-20 03:09:45 15.9 26 22.3
002EED3D 2019-04-20 02:36:31 15.9 26 22.5
002EED3D 2019-04-20 02:03:19 16 26 22.7
002EED3D 2019-04-20 01:30:06 16 26 22.9
002EED3D 2019-04-20 00:56:54 16.1 26 23
002EED3D 2019-04-20 00:23:41 16.1 26 23.1
002EED3D 2019-04-19 23:50:28 16.1 26 23.1
002EED3D 2019-04-19 23:17:16 16.1 26 23.2
002EED3D 2019-04-19 22:44:04 16.1 26 23.2
002EED3D 2019-04-19 22:10:52 16.1 26 23.1
002EED3D 2019-04-19 21:37:41 16.1 26 23.1
002EED3D 2019-04-19 21:04:33 16.3 26 23
002EED3D 2019-04-19 20:31:16 16.3 26 23.1
002EED3D 2019-04-19 19:58:03 16.3 26 23.1
002EED3D 2019-04-19 19:24:51 16.3 26 23.1
002EED3D 2019-04-19 18:51:39 16.3 26 22.9
002EED3D 2019-04-19 18:18:27 16.3 26 22.9
002EED3D 2019-04-19 17:45:15 16.2 26 22.9
002EED3D 2019-04-19 17:12:03 16.2 26 22.9
002EED3D 2019-04-19 16:38:51 16.1 26 22.9
002EED3D 2019-04-19 16:05:39 16.1 26 22.9
002EED3D 2019-04-19 15:32:27 16.1 26 22.8
002EED3D 2019-04-19 14:59:16 16.1 26 22.9
002EED3D 2019-04-19 14:26:05 16.1 26 22.9
002EED3D 2019-04-19 13:52:54 16.1 25 22.9
002EED3D 2019-04-19 13:19:42 16 25 22.9
002EED3D 2019-04-19 12:46:28 16 25 22.8
002EED3D 2019-04-19 12:13:15 16 25 22.7
002EED3D 2019-04-19 11:40:02 16 25 22.6
002EED3D 2019-04-19 11:06:49 16 25 22.4
002EED3D 2019-04-19 10:33:37 15.9 25 22.4
002EED3D 2019-04-19 10:00:26 16 25 22.4
002EED3D 2019-04-19 09:27:12 15.9 25 22.3
002EED3D 2019-04-19 08:54:01 15.9 25 22.4
002EED3D 2019-04-19 08:20:49 16 25 22.7
002EED3D 2019-04-19 07:47:36 16 25 22.8
002EED3D 2019-04-19 07:14:24 16.1 25 23.1
002EED3D 2019-04-19 06:41:11 16.1 25 23.2
002EED3D 2019-04-19 06:07:59 16.1 25 23.3
002EED3D 2019-04-19 05:34:47 16.1 25 23.5
002EED3D 2019-04-19 05:01:34 16.1 25 23.5
002EED3D 2019-04-19 04:28:21 16.1 25 23.6
002EED3D 2019-04-19 03:55:09 16.1 25 23.7
002EED3D 2019-04-19 03:21:55 16.1 25 23.7
002EED3D 2019-04-19 02:48:42 16.2 25 23.6
002EED3D 2019-04-19 02:15:29 16.3 25 23.6
002EED3D 2019-04-19 01:42:16 16.3 25 23.6
002EED3D 2019-04-19 01:09:04 16.3 25 23.8
002EED3D 2019-04-19 00:35:52 16.5 25 24.3
002EED3D 2019-04-19 00:02:38 16.5 25 24.2
002EED3D 2019-04-18 23:29:25 16.5 25 24.3
002EED3D 2019-04-18 22:56:11 16.5 25 24.3
002EED3D 2019-04-18 22:22:58 16.5 25 24.3
002EED3D 2019-04-18 21:49:45 16.7 25 24.4
002EED3D 2019-04-18 21:16:33 16.7 25 24.5
002EED3D 2019-04-18 20:43:21 16.7 25 24.6
002EED3D 2019-04-18 20:10:09 16.8 25 24.6
002EED3D 2019-04-18 19:36:56 16.8 25 24.7
002EED3D 2019-04-18 19:03:41 16.7 25 24.8
002EED3D 2019-04-18 18:30:26 16.7 25 24.9
002EED3D 2019-04-18 17:57:13 16.6 25 24.7
002EED3D 2019-04-18 17:23:58 16.5 25 24.7
002EED3D 2019-04-18 16:50:44 16.5 25 24.7
002EED3D 2019-04-18 16:17:31 16.5 24 24.8
002EED3D 2019-04-18 15:44:18 16.4 24 24.8
002EED3D 2019-04-18 15:11:05 16.4 24 24.9
002EED3D 2019-04-18 14:37:52 16.3 24 25
002EED3D 2019-04-18 14:04:39 16.3 24 25.1
002EED3D 2019-04-18 13:31:26 16.3 24 25.2
002EED3D 2019-04-18 12:58:11 16.3 24 25.4
002EED3D 2019-04-18 12:24:57 16.3 24 25.6
002EED3D 2019-04-18 11:51:44 16.3 24 25.5
002EED3D 2019-04-18 11:18:30 16.3 24 25.1
002EED3D 2019-04-18 10:45:17 16.3 24 25.2
002EED3D 2019-04-18 10:12:03 16.2 24 25.2
002EED3D 2019-04-18 09:38:49 16.2 24 25.2
002EED3D 2019-04-18 09:05:34 16.3 24 25.2
002EED3D 2019-04-18 08:32:20 16.4 24 25.2
002EED3D 2019-04-18 07:59:07 16.3 24 25.2
002EED3D 2019-04-18 07:25:53 16.3 24 25.2
002EED3D 2019-04-18 06:52:41 16.3 24 25.3
002EED3D 2019-04-18 06:19:28 16.3 23 25.3
002EED3D 2019-04-18 05:46:16 16.3 23 25.2
002EED3D 2019-04-18 05:13:04 16.3 23 25
002EED3D 2019-04-18 04:39:52 16.3 23 24.9
002EED3D 2019-04-18 04:06:40 16.3 23 24.9
002EED3D 2019-04-18 03:33:28 16.3 23 24.8
002EED3D 2019-04-18 03:00:15 16.3 23 24.7
002EED3D 2019-04-18 02:27:02 16.4 23 24.4
002EED3D 2019-04-18 01:53:51 16.5 23 24.3
002EED3D 2019-04-18 01:20:39 16.5 23 24
002EED3D 2019-04-18 00:47:28 16.7 23 23.8
002EED3D 2019-04-18 00:14:16 16.8 23 23.6
002EED3D 2019-04-17 23:41:05 16.8 23 23.5
002EED3D 2019-04-17 23:07:53 16.8 23 23.2
002EED3D 2019-04-17 22:34:41 16.8 23 22.8
002EED3D 2019-04-17 22:01:31 16.8 23 22.7
002EED3D 2019-04-17 21:28:17 16.8 23 22.6
002EED3D 2019-04-17 20:55:07 16.8 23 22.5
002EED3D 2019-04-17 20:21:55 16.8 23 22.4
002EED3D 2019-04-17 19:48:43 16.8 23 22.3
002EED3D 2019-04-17 19:15:33 16.8 23 22.1
002EED3D 2019-04-17 18:42:21 16.7 23 23
002EED3D 2019-04-17 18:09:10 16.8 23 23.6
002EED3D 2019-04-17 17:35:58 16.8 23 23.4
002EED3D 2019-04-17 17:02:45 16.8 23 23.2
002EED3D 2019-04-17 16:29:32 16.7 22 23.1
002EED3D 2019-04-17 15:56:19 16.7 22 23
002EED3D 2019-04-17 15:23:06 16.8 22 23.7
002EED3D 2019-04-17 14:49:54 16.8 22 23.7
002EED3D 2019-04-17 14:16:41 16.8 22 23.7
002EED3D 2019-04-17 13:10:16 17 22 23.7
002EED3D 2019-04-17 12:37:04 17 22 23.8
002EED3D 2019-04-17 12:03:52 17 22 23.7
002EED3D 2019-04-17 11:30:41 17 22 23.7
002EED3D 2019-04-17 10:57:30 17 22 23.6
002EED3D 2019-04-17 10:24:17 17 22 23.6
002EED3D 2019-04-17 09:51:05 17 22 23.5
002EED3D 2019-04-17 09:17:53 17.2 22 23.5
002EED3D 2019-04-17 08:44:41 17.3 22 23.5
002EED3D 2019-04-17 08:11:30 17.4 22 23.6
002EED3D 2019-04-17 07:38:18 17.6 22 23.7
002EED3D 2019-04-17 07:05:06 17.6 22 23.6
002EED3D 2019-04-17 06:31:53 17.6 22 23.5
002EED3D 2019-04-17 05:58:41 17.8 22 23.5
002EED3D 2019-04-17 05:25:29 17.8 22 23.5
002EED3D 2019-04-17 04:52:19 17.8 22 23.6
002EED3D 2019-04-17 04:19:08 17.9 22 22.9
002EED3D 2019-04-17 03:45:58 18 22 22
002EED3D 2019-04-17 03:12:49 18 22 21.9
002EED3D 2019-04-17 02:39:40 18 22 21.6
002EED3D 2019-04-17 02:06:30 18.1 22 21.3
002EED3D 2019-04-17 01:33:19 18.2 22 21.3
002EED3D 2019-04-17 01:00:08 18.1 21 19.7
002EED3D 2019-04-17 00:26:58 18.1 21 19.5
002EED3D 2019-04-16 23:53:48 18.2 21 19.5
002EED3D 2019-04-16 23:20:37 18.3 21 19.7
002EED3D 2019-04-16 22:47:27 18.5 21 19.5
002EED3D 2019-04-16 22:14:16 18.7 21 19.5
002EED3D 2019-04-16 21:41:04 18.9 21 19.8
002EED3D 2019-04-16 21:07:52 19 21 20.1
002EED3D 2019-04-16 20:34:41 19.1 21 20.4
002EED3D 2019-04-16 20:01:29 19.2 21 20.6
002EED3D 2019-04-16 19:28:18 19.3 21 20.8
002EED3D 2019-04-16 18:55:09 19.3 21 20.8
002EED3D 2019-04-16 18:21:58 19.3 21 21
002EED3D 2019-04-16 17:48:48 19.5 21 20.6
002EED3D 2019-04-16 17:15:39 19.7 21 20.6
002EED3D 2019-04-16 16:42:31 19.8 21 20.6
002EED3D 2019-04-16 16:09:20 20.1 21 20.8
002EED3D 2019-04-16 15:36:09 20.4 21 20.8
002EED3D 2019-04-16 15:02:58 20.6 21 20.7
002EED3D 2019-04-16 14:29:48 21 21 20.7
002EED3D 2019-04-16 13:56:38 21.1 22 20.7
002EED3D 2019-04-16 13:23:30 21 22 20.8
002EED3D 2019-04-16 12:50:18 21 22 20.9
002EED3D 2019-04-16 12:17:09 21 22 20.9
002EED3D 2019-04-16 11:43:58 21 22 20.8
002EED3D 2019-04-16 11:10:48 21 22 20.8
002EED3D 2019-04-16 10:37:41 21 22 21
002EED3D 2019-04-16 10:04:30 21 22 20.9
002EED3D 2019-04-16 09:31:19 21 21 20.9
002EED3D 2019-04-16 08:58:09 21 21 21.1
002EED3D 2019-04-16 08:25:00 21 21 21.2
002EED3D 2019-04-16 07:51:48 21 21 21.1
002EED3D 2019-04-16 07:18:36 21 21 21
002EED3D 2019-04-16 06:45:25 21 21 20.8
002EED3D 2019-04-16 06:12:14 21 21 20.8
002EED3D 2019-04-16 05:39:04 21 21 20.7
002EED3D 2019-04-16 05:05:54 21 21 20.9
002EED3D 2019-04-16 04:32:44 21 21 20.3
002EED3D 2019-04-16 03:59:33 21 21 20.5
002EED3D 2019-04-16 03:26:27 21 21 20.5
002EED3D 2019-04-16 02:53:15 21 21 21.8
002EED3D 2019-04-16 02:20:05 21 21 21.7
002EED3D 2019-04-16 01:46:55 21.1 21 21.5
002EED3D 2019-04-16 01:13:46 21.1 21 21.5
002EED3D 2019-04-16 00:40:35 21.1 21 21.5
002EED3D 2019-04-16 00:07:25 21.1 21 21.6
002EED3D 2019-04-15 23:34:15 21.2 21 21.7
002EED3D 2019-04-15 23:01:08 21.2 21 22.2
002EED3D 2019-04-15 22:27:56 21.2 21 22.2
002EED3D 2019-04-15 21:54:46 21.2 21 22.5
002EED3D 2019-04-15 21:21:37 21.2 21 22.5
002EED3D 2019-04-15 20:48:27 21.3 21 22.8
002EED3D 2019-04-15 20:15:17 21.3 21 22.9
002EED3D 2019-04-15 19:42:07 21.3 20 23.1
002EED3D 2019-04-15 19:08:57 21.3 20 23.2
002EED3D 2019-04-15 18:35:49 21.4 20 23.2
002EED3D 2019-04-15 18:02:38 21.4 20 23.4
002EED3D 2019-04-15 17:29:30 21.5 20 23.4
002EED3D 2019-04-15 16:56:19 21.7 20 23.8
002EED3D 2019-04-15 16:23:08 21.7 20 23.8
002EED3D 2019-04-15 15:49:59 21.7 20 24
002EED3D 2019-04-15 15:16:49 21.9 20 24.2
002EED3D 2019-04-15 14:43:39 21.9 20 24.4
002EED3D 2019-04-15 14:10:28 22.1 20 24.6
002EED3D 2019-04-15 13:37:18 22.3 20 24.1
002EED3D 2019-04-15 12:30:56 22.5 20 24.1
002EED3D 2019-04-15 11:57:46 22.5 19 24.2
002EED3D 2019-04-15 11:24:34 22.3 18 24.3
002EED3D 2019-04-15 10:51:24 22.3 18 24.4
002EED3D 2019-04-15 10:18:13 22.3 18 24.6
002EED3D 2019-04-15 09:45:02 22.2 18 24.8
002EED3D 2019-04-15 09:11:50 22.1 18 24.9
002EED3D 2019-04-15 08:38:39 22.1 18 24.7
002EED3D 2019-04-15 08:05:29 22 18 24.9
002EED3D 2019-04-15 07:32:18 21.9 18 25
002EED3D 2019-04-15 06:59:07 21.9 18 24.9
002EED3D 2019-04-15 06:25:55 21.9 18 24.8
002EED3D 2019-04-15 05:52:43 21.9 19 24.8
002EED3D 2019-04-15 05:19:31 21.9 19 24.7
002EED3D 2019-04-15 04:46:20 21.9 19 24.7
002EED3D 2019-04-15 04:13:09 21.9 19 25
002EED3D 2019-04-15 03:39:59 21.9 19 24.9
002EED3D 2019-04-15 03:06:50 21.9 19 25.1
002EED3D 2019-04-15 02:33:38 21.9 19 24.8
002EED3D 2019-04-15 02:00:30 21.9 19 24.8
002EED3D 2019-04-15 01:27:19 21.9 19 24.6
002EED3D 2019-04-15 00:54:09 21.9 19 24.6
002EED3D 2019-04-15 00:20:57 21.9 19 24.4
002EED3D 2019-04-14 23:47:47 21.9 19 24.9
002EED3D 2019-04-14 23:14:36 21.9 19 24.9
002EED3D 2019-04-14 22:41:25 21.9 19 24.8
002EED3D 2019-04-14 22:08:15 21.9 19 25
002EED3D 2019-04-14 21:35:04 22 20 25
002EED3D 2019-04-14 21:01:54 22 20 25.3
002EED3D 2019-04-14 20:28:44 22.1 20 25.2
002EED3D 2019-04-14 19:55:33 22.1 20 25.1
002EED3D 2019-04-14 19:22:22 22 20 25.1
002EED3D 2019-04-14 18:49:11 21.9 19 25.1
002EED3D 2019-04-14 18:16:01 21.9 19 25.4
002EED3D 2019-04-14 17:42:50 21.9 19 25.4
002EED3D 2019-04-14 17:09:42 21.9 19 25.5
002EED3D 2019-04-14 16:36:33 21.9 19 25.4
002EED3D 2019-04-14 16:03:21 21.9 19 25.4
002EED3D 2019-04-14 15:30:10 21.9 19 25.4
002EED3D 2019-04-14 14:57:00 21.9 20 25.6
002EED3D 2019-04-14 14:23:49 21.9 20 25.3
002EED3D 2019-04-14 13:50:41 21.9 20 25.3
002EED3D 2019-04-14 13:17:32 21.9 20 25.4
002EED3D 2019-04-14 12:44:20 21.9 20 25.4
002EED3D 2019-04-14 12:11:10 22 20 25.4
002EED3D 2019-04-14 11:38:00 21.9 20 25.7
002EED3D 2019-04-14 11:04:51 21.9 20 25.8
002EED3D 2019-04-14 10:31:43 21.9 20 25.8
002EED3D 2019-04-14 09:58:34 21.9 20 25.8
002EED3D 2019-04-14 09:25:24 21.9 20 25.9
002EED3D 2019-04-14 08:52:14 21.9 20 25.9
002EED3D 2019-04-14 08:19:05 21.9 19 25.8
002EED3D 2019-04-14 07:45:56 21.9 19 25.7
002EED3D 2019-04-14 07:12:45 21.9 19 25.5
002EED3D 2019-04-14 06:39:35 21.9 19 25.9
002EED3D 2019-04-14 06:06:25 21.9 19 25.8
002EED3D 2019-04-14 05:33:17 21.9 19 25.8
002EED3D 2019-04-14 05:00:07 22 19 26.1
002EED3D 2019-04-14 04:26:57 21.9 19 25.8
002EED3D 2019-04-14 03:53:47 21.9 19 25.8
002EED3D 2019-04-14 03:20:37 22 19 25.7
002EED3D 2019-04-14 02:47:27 22.1 19 25.8
002EED3D 2019-04-14 02:14:17 22.1 19 25.9
002EED3D 2019-04-14 01:41:07 22.1 19 26.2
002EED3D 2019-04-14 01:07:57 22.1 19 26.1
002EED3D 2019-04-14 00:34:47 22.1 19 26.2
002EED3D 2019-04-14 00:01:38 22.1 19 26.1
002EED3D 2019-04-13 23:28:28 22.1 19 26.1
002EED3D 2019-04-13 22:55:18 22.1 19 26.1
002EED3D 2019-04-13 22:22:08 22.1 19 26.2
002EED3D 2019-04-13 21:48:59 22.1 19 26.1
002EED3D 2019-04-13 21:15:48 22.1 19 25.9
002EED3D 2019-04-13 20:42:38 22.1 19 25.8
002EED3D 2019-04-13 20:09:28 22.2 19 25.5
002EED3D 2019-04-13 19:36:19 22.2 19 25.4
002EED3D 2019-04-13 19:03:08 22.2 19 25.4
002EED3D 2019-04-13 18:29:58 22.3 19 25.3
002EED3D 2019-04-13 17:56:47 22.3 19 25.4
002EED3D 2019-04-13 17:23:36 22.3 19 25.3
002EED3D 2019-04-13 16:50:27 22.3 19 24.8
002EED3D 2019-04-13 16:17:16 22.3 19 24.7
002EED3D 2019-04-13 15:44:05 22.3 19 24.8
002EED3D 2019-04-13 15:10:56 22.3 19 24.3
002EED3D 2019-04-13 14:37:47 22.3 19 24.3
002EED3D 2019-04-13 14:04:36 22.4 19 24.2
002EED3D 2019-04-13 13:31:27 22.3 19 24.1
002EED3D 2019-04-13 12:58:16 22.3 19 24.1
002EED3D 2019-04-13 12:25:06 22.3 19 23.9
002EED3D 2019-04-13 11:51:55 22.3 19 23.3
002EED3D 2019-04-13 11:18:45 22.3 20 23.1
002EED3D 2019-04-13 10:45:34 22.3 20 23.1
002EED3D 2019-04-13 10:12:22 22.3 19 23.5
002EED3D 2019-04-13 09:39:10 22.3 19 23.3
002EED3D 2019-04-13 09:05:59 22.3 19 23.2
002EED3D 2019-04-13 08:32:48 22.3 19 22.9
002EED3D 2019-04-13 07:59:37 22.3 19 22.9
002EED3D 2019-04-13 07:26:26 22.3 19 23.1
002EED3D 2019-04-13 06:53:15 22.3 19 23.1
002EED3D 2019-04-13 06:20:05 22.3 19 23.2
002EED3D 2019-04-13 05:46:55 22.3 19 23.3
002EED3D 2019-04-13 05:13:44 22.4 19 23.3
002EED3D 2019-04-13 04:40:33 22.4 19 23.4
002EED3D 2019-04-13 04:07:22 22.5 19 23.3
002EED3D 2019-04-13 03:34:11 22.5 19 23.9
002EED3D 2019-04-13 03:01:00 22.5 20 24.1
002EED3D 2019-04-13 02:27:50 22.5 20 24
002EED3D 2019-04-13 01:54:38 22.5 20 24
002EED3D 2019-04-13 01:21:26 22.5 20 24.1
002EED3D 2019-04-13 00:48:15 22.6 20 24.2
002EED3D 2019-04-13 00:15:04 22.7 20 24.3
002EED3D 2019-04-12 23:41:54 22.7 20 24.3
002EED3D 2019-04-12 23:08:42 22.8 20 24.3
002EED3D 2019-04-12 22:35:31 22.7 20 24.5
002EED3D 2019-04-12 22:02:20 22.7 21 24.6
002EED3D 2019-04-12 21:29:10 22.8 21 24.7
002EED3D 2019-04-12 20:55:59 22.9 21 24.8
002EED3D 2019-04-12 20:22:49 22.9 20 24.5
002EED3D 2019-04-12 19:49:38 22.9 20 24.6
002EED3D 2019-04-12 19:16:27 22.9 20 24.7
002EED3D 2019-04-12 18:43:18 23 19 24.8
002EED3D 2019-04-12 18:10:08 23.2 19 25.1
002EED3D 2019-04-12 17:36:58 23.2 20 25
002EED3D 2019-04-12 17:03:48 23.2 20 25.3
002EED3D 2019-04-12 16:30:39 23 20 25.1
002EED3D 2019-04-12 15:57:29 22.9 20 25.4
002EED3D 2019-04-12 15:24:18 22.8 20 25.9
002EED3D 2019-04-12 14:51:07 22.5 22 26.1
002EED3D 2019-04-12 14:17:57 22.3 22 27
002EED3D 2019-04-12 13:44:46 21.9 24 23.9
002EED3D 2019-04-12 13:11:35 21.3 27 10.3